sat.trackr.live / text

‹ back to catalog

STARLINK-5725

NORAD 55605 · 2023-020AN

PAYLOAD ACTIVE UNKNOWN

§ Identity

Operator
Country
US
Launch date
2023-02-12
Launch site
AFETR
Launch vehicle
Mass (kg)
RCS (m²)

Purposes: comms

External: N2YO · Heavens-Above · Gunter

§ Orbital elements

Epoch: 2026-05-25T02:01:14.366784Z

Period
94.27 min
Inclination
43.0016°
Eccentricity
0.0000972
Mean motion
15.27575730 rev/d
Perigee alt
482.4 km
Apogee alt
483.7 km
Semi-major
6,861.2 km
B*
1.3977e-5
RAAN
282.7283°
Arg perigee
274.1892°
Mean anomaly
85.8849°
Rev number
18,072

§ Raw data

STARLINK-57251 55605U 23020AN  26145.08419406  .00000123  00000+0  13977-4 0  99942 55605  43.0016 282.7283 0000972 274.1892  85.8849 15.27575730180722

JSON: /api/v1/satellites/55605 · /tle

For live sub-satellite position, see the globe view (requires WebGL).

§ Visibility from observer

Set your observer location to see the next 7 days of passes ≥ 10°. The values pass through the URL so the page stays shareable.

No JS? Fill the form by hand. The geolocation button needs JavaScript.